Weather Roundup
Issued by NWS Springfield, MO

Home | Current Version | Previous Version | Text Only | Print | Product List | Glossary On
Versions: 1 2 3 4 5 6 7 8 9 10 11 12 13 14 15 16 17 18 19 20 21 22 23 24 25 26 27 28 29 30 31 32 33 34 35 36 37 38 39 40 41 42 43 44 45 46 47 48 49 50
000
NZUS99 KSGF 212359
HRRSGF

HOURLY WEATHER
NATIONAL WEATHER SERVICE SPRINGFIELD MO
700 PM CDT TUE OCT 21 2014

......SGF CWA......

CITY           SKY/WX    TMP DP  RH WIND       PRES   REMARKS
SPRINGFIELD    CLEAR     65  45  48 NE3       30.08R
6HR MIN TEMP:  65; 6HR MAX TEMP:  75;

JOPLIN         CLEAR     66  48  52 NE5       30.07R
6HR MIN TEMP:  66; 6HR MAX TEMP:  76;

WEST PLAINS    CLEAR     61  46  57 N3        30.10R
6HR MIN TEMP:  60; 6HR MAX TEMP:  74;

ROLLA          CLEAR     59  45  59 NE6       30.10R
6HR MIN TEMP:  58; 6HR MAX TEMP:  71;

OSAGE BEACH    CLEAR     61  45  55 NE3       30.10R
BRANSON        CLEAR     57  50  77 CALM      30.09S

......SURROUNDING SGF CWA......

CITY           SKY/WX    TMP DP  RH WIND       PRES   REMARKS
CHANUTE        CLEAR     68  56  65 E5        30.05S
PARSONS        CLEAR     66  58  75 CALM      30.05S
COFFEYVILLE    CLEAR     70  57  63 E5        30.04R
EMPORIA        CLEAR     66  55  67 SE7       30.04R
GROVE OK       CLEAR     68  57  68 CALM      30.06R
SILOAM SPRINGS CLEAR     66  52  59 E3        30.07S
HARRISON AR    CLEAR     62  50  64 CALM      30.09R
NEAR YELLVILLE CLEAR     64  45  48 CALM      30.08S

......KANSAS AND MISSOURI......

CITY           SKY/WX    TMP DP  RH WIND       PRES   REMARKS
KANSAS CTY INT CLEAR     65  43  44 E7        30.08R
DOWNTOWN KC    CLEAR     67  44  43 E6        30.07R
COLUMBIA       CLEAR     59  46  62 NE8       30.12R
SEDALIA        CLEAR     66  44  45 E5        30.10S
ST JOSEPH      CLEAR     63  43  48 SE7       30.07R
ST LOUIS       CLEAR     62  43  49 NE6       30.14R
SPIRIT OF STL  CLEAR     55  45  68 CALM      30.13R
KIRKSVILLE     CLEAR     56  45  66 E5        30.15R
WICHITA        CLEAR     73  58  59 SE8       30.00S
TOPEKA         CLEAR     65  44  46 E5        30.04S
OLATHE         CLEAR     66  43  43 E6        30.07R

......TENNESSEE......

CITY           SKY/WX    TMP DP  RH WIND       PRES   REMARKS
MEMPHIS        CLEAR     69  45  41 CALM      30.06R
NASHVILLE      CLEAR     62  46  55 N8        30.06R

......ARKANSAS.......

CITY           SKY/WX    TMP DP  RH WIND       PRES   REMARKS
FAYETTEVILLE   CLEAR     60  55  83 CALM      30.07R
FT SMITH       CLEAR     73  59  61 SE5       30.03S
LITTLE ROCK    CLEAR     70  50  49 N5        30.05R

......OKLAHOMA.......

CITY           SKY/WX    TMP DP  RH WIND       PRES   REMARKS
TULSA          CLEAR     73  62  68 E6        30.01R
PONCA CITY     PTCLDY    74  60  61 SE7       30.00S
MCALESTER      CLEAR     70  64  81 SE3       30.04R
OKLAHOMA CITY  PTCLDY    72  57  59 S8        30.03R

......IOWA............

CITY           SKY/WX    TMP DP  RH WIND       PRES   REMARKS
DES MOINES     CLEAR     60  43  53 E10       30.13R
QUAD CITIES    CLEAR     47  37  68 E5        30.20R

......ILLINOIS........

CITY           SKY/WX    TMP DP  RH WIND       PRES   REMARKS
QUINCY         CLEAR     55  39  54 NE5       30.16R
CHICAGO        MOCLDY    48  37  65 NE13      30.22R




USA.gov is the U.S. government's official web portal to all federal, state and local government web resources and services.